Twin Bridges, CA

7:54 AM PDT on September 29, 2016 (GMT -0700)
Lake Tahoe

Weather History for KTVL - October, 2011

Change the Weather History Date:

Tuesday, October 4, 2011

  Actual Average Record
Temperature  
Mean Temperature 46 °F 49 °F  
Max Temperature 56 °F 68 °F 82 °F (1988)
Min Temperature 35 °F 30 °F 21 °F (1973)
Degree Days  
Heating Degree Days 19 16  
Month to date heating degree days 43 63  
Since 1 July heating degree days 491 689  
Cooling Degree Days 0 0  
Month to date cooling degree days 0 0  
Year to date cooling degree days 19 31  
Moisture  
Dew Point 33 °F    
Average Humidity 63    
Maximum Humidity 85    
Minimum Humidity 41    
Precipitation  
Precipitation 0.11 in - 0.46 in (2008)
Month to date precipitation 0.11  
Year to date precipitation 13.73  
Snow  
Snow 0.00 in - - ()
Month to date snowfall 0.0  
Snow Depth 0.00 in    
Sea Level Pressure  
Sea Level Pressure 29.82 in    
Wind  
Wind Speed 10 mph (SSW)    
Max Wind Speed 24 mph    
Max Gust Speed 31 mph    
Visibility 9 miles    
Events Rain    
T = Trace of Precipitation, MM = Missing Value Source: NWS Daily Summary

Daily Weather History Graph

Daily Weather History Graph

Search for Another Location

Airport or City:

Trip Planner

Search our weather history database for the weather conditions in past years. The results will help you decide how hot, cold, wet, or windy it might be!

Date:

Astronomy

Oct. 04, 2011 Rise Set
Actual Time 6:58 AM PDT 6:38 PM PDT
Civil Twilight 6:31 AM PDT 7:04 PM PDT
Nautical Twilight 6:01 AM PDT 7:35 PM PDT
Astronomical Twilight 5:30 AM PDT 8:06 PM PDT
Moon 2:40 PM PDT (10/4) No Moon Set
Length of Visible Light 12h 32m
Length of Day
11h 39m
First Quarter, 57% of the Moon is Illuminated
Oct 4
First Quarter
Oct 11
Full
Oct 19
Last Quarter
Oct 26
New
Nov 2
First Quarter

Hourly Weather History & Observations

Time (PDT) Temp. Windchill Dew Point Humidity Pressure Visibility Wind Dir Wind Speed Gust Speed Precip Events Conditions
12:53 AM 39.9 °F - 30.9 °F 70% 29.84 in 10.0 mi Calm Calm - N/A   Mostly Cloudy
1:53 AM 39.0 °F - 30.0 °F 70% 29.85 in 10.0 mi Calm Calm - N/A   Partly Cloudy
2:53 AM 37.9 °F 35.5 °F 28.9 °F 70% 29.83 in 10.0 mi South 3.5 mph - N/A   Clear
3:53 AM 37.4 °F 34.9 °F 28.4 °F 70% 29.93 in 10.0 mi WNW 3.5 mph - N/A   Clear
4:53 AM 36.0 °F - 27.0 °F 70% 29.85 in 10.0 mi Calm Calm - N/A   Scattered Clouds
5:53 AM 39.9 °F - 28.0 °F 63% 29.85 in 10.0 mi Calm Calm - N/A   Partly Cloudy
6:53 AM 41.0 °F 37.1 °F 28.0 °F 60% 29.86 in 10.0 mi SSE 5.8 mph - N/A   Partly Cloudy
7:53 AM 44.1 °F 40.1 °F 28.9 °F 55% 29.85 in 10.0 mi South 6.9 mph - N/A   Clear
8:53 AM 48.9 °F - 28.9 °F 46% 29.83 in 10.0 mi South 11.5 mph - N/A   Clear
9:53 AM 50.0 °F - 30.0 °F 46% 29.83 in 10.0 mi South 10.4 mph 24.2 mph N/A   Clear
10:53 AM 53.6 °F - 30.2 °F 41% 29.92 in 10.0 mi South 12.7 mph 20.7 mph N/A   Clear
11:53 AM 55.0 °F - 32.0 °F 42% 29.81 in 10.0 mi SSW 15.0 mph 21.9 mph N/A   Partly Cloudy
12:53 PM 53.1 °F - 33.1 °F 47% 29.84 in 10.0 mi SSW 13.8 mph 24.2 mph N/A   Overcast
1:53 PM 51.1 °F - 34.0 °F 52% 29.83 in 10.0 mi SSW 12.7 mph 23.0 mph N/A   Overcast
2:53 PM 51.8 °F - 35.6 °F 54% 29.90 in 10.0 mi SSW 16.1 mph 24.2 mph N/A   Overcast
3:02 PM 48.2 °F - 35.6 °F 62% 29.90 in 10.0 mi SSW 12.7 mph 23.0 mph N/A   Overcast
3:51 PM 46.4 °F 41.5 °F 39.2 °F 76% 29.90 in 4.0 mi SW 10.4 mph 18.4 mph 0.00 in Rain Light Rain
3:53 PM 46.0 °F 40.2 °F 39.0 °F 76% 29.83 in 4.0 mi SSW 12.7 mph 18.4 mph 0.00 in Rain Light Rain
4:17 PM 46.4 °F 41.9 °F 39.2 °F 76% 29.88 in 9.0 mi SSW 9.2 mph 17.3 mph 0.01 in Rain Light Rain
4:51 PM 46.4 °F 39.5 °F 37.4 °F 71% 29.88 in 10.0 mi SSW 17.3 mph 25.3 mph 0.01 in Rain Light Rain
4:53 PM 46.4 °F 39.8 °F 37.4 °F 71% 29.88 in 9.0 mi SSW 16.1 mph 25.3 mph N/A Rain Light Rain
5:25 PM 46.4 °F 41.1 °F 37.4 °F 71% 29.88 in 10.0 mi SSW 11.5 mph 17.3 mph 0.00 in Rain Light Rain
6:53 PM 46.0 °F 39.6 °F 35.1 °F 66% 29.76 in 10.0 mi SSE 15.0 mph 23.0 mph 0.00 in   Overcast
7:53 PM 44.1 °F 37.1 °F 35.1 °F 71% 29.73 in 10.0 mi SSE 15.0 mph 29.9 mph 0.00 in Rain Light Rain
8:53 PM 44.1 °F 40.1 °F 35.1 °F 71% 29.69 in 10.0 mi Variable 6.9 mph 28.8 mph 0.01 in   Overcast
9:53 PM 43.0 °F 37.2 °F 36.0 °F 76% 29.68 in 9.0 mi South 10.4 mph 18.4 mph 0.00 in Rain Light Rain
10:39 PM 42.8 °F 34.5 °F 35.6 °F 76% 29.74 in 8.0 mi SSW 18.4 mph 26.5 mph 0.01 in Rain Light Rain
10:53 PM 42.1 °F 34.9 °F 35.1 °F 76% 29.65 in 5.0 mi South 13.8 mph 23.0 mph 0.02 in Rain Light Rain
11:06 PM 42.8 °F 36.2 °F 35.6 °F 76% 29.75 in 4.0 mi South 12.7 mph 24.2 mph 0.01 in Rain Light Rain
11:15 PM 42.8 °F 36.6 °F 35.6 °F 76% 29.74 in 5.0 mi South 11.5 mph 25.3 mph 0.01 in Rain Light Rain
11:53 PM 39.9 °F 35.1 °F 35.1 °F 83% 29.63 in 7.0 mi SSE 6.9 mph - 0.03 in Rain Light Rain